Location: *
(45.9500°N, 9.0833°E)
Time: 00:39:58
(UTC+00:00)

Tiros 1 despin weight - Pass Details

Date: 01 July 2021
Orbit: 593 x 642 km, 48.2° (Epoch: 02 August)

Event Time Altitude Azimuth Distance (km) Brightness Sun altitude
Rises 03:34:47 0° 275° (W) 2,849 ? -1.2°
Reaches altitude 10° 03:37:06 10° 278° (W) 1,939 ? -0.8°
Maximum altitude 03:41:31 64° 0° (N) 661 ? -0.2°
Drops below altitude 10° 03:45:54 10° 83° (E) 1,924 ? 0.4°
Sets 03:48:12 0° 87° (E) 2,825 ? 0.8°
